Regional Weather Roundup
Issued by NWS

Home | Current Version | Previous Version | Graphics & Text | Print | Product List | Glossary On
Versions: 1 2 3 4 5 6 7 8 9 10 11 12 13 14 15 16 17 18 19 20 21 22 23 24 25 26 27 28 29 30 31 32 33 34 35 36 37 38 39 40 41 42 43 44 45 46 47 48 49
000
ASUS45 KBOU 180607
RWRCO

WEATHER ROUNDUP FOR COLORADO
NATIONAL WEATHER SERVICE DENVER/BOULDER CO
1200 AM MDT THU SEP 18 2014

NOTE: "FAIR" INDICATES FEW OR NO CLOUDS BELOW 12000 FEET WITH NO
SIGNIFICANT WEATHER AND/OR OBSTRUCTIONS TO VISIBILITY.

COZ001>005-013-030-031-180700-
...NORTHWEST COLORADO...

CITY           SKY/WX    TMP DP  RH WIND       PRES   REMARKS
CRAIG          CLEAR     47  39  74 CALM      30.14S
HAYDEN         CLEAR     55  36  47 E10       30.15S
MEEKER         CLEAR     55  39  54 E7        30.15S
MOUNT WERNER   NOT AVBL
STEAMBOAT SPGS CLEAR     54  40  60 CALM      30.18S
WALDEN         CLEAR     41  32  70 SE9       30.28S
$$

COZ006>008-011-180700-
...WEST CENTRAL VALLEYS...

CITY           SKY/WX    TMP DP  RH WIND       PRES   REMARKS
GRAND JUNCTION CLEAR     64  38  38 CALM      30.01R
MONTROSE       CLEAR     65  43  44 SE10      30.11S
EAGLE          CLEAR     55  39  54 CALM      30.20R
RIFLE          CLEAR     61  39  44 S3        30.08R
DELTA          CLEAR     68  44  42 CALM      30.07S
NUCLA          CLEAR     59  45  58 SE9       30.17S
$$

COZ017>023-064>068-180700-
...SOUTHWEST COLORADO...

CITY           SKY/WX    TMP DP  RH WIND       PRES   REMARKS
DURANGO        CLEAR     52  47  83 N3        30.19F
CORTEZ         CLEAR     52  49  89 E3        30.15F
PAGOSA SPRINGS CLEAR     48  44  87 CALM      30.27S
TELLURIDE      NOT AVBL
WOLF CREEK PAS CLEAR     43  32  65 NE5       30.54S
$$

COZ009-010-012-014-032>034-037-058>063-180700-
...CENTRAL COLORADO...

CITY           SKY/WX    TMP DP  RH WIND       PRES   REMARKS
ASPEN          CLEAR     53  36  52 S7        30.25S
BUENA VISTA    CLEAR     51  36  55 CALM      30.30R
COPPER MTN     CLEAR     52  32  46 S16       30.56F
BERTHOUD PASS  FAIR      41  41 100 MISG      30.61F
COTTONWOOD PAS CLEAR     59  32  36 W9        30.41F
GUNNISON       CLEAR     55  36  47 E6        30.28R
KREMMLING      CLEAR     46  36  66 CALM      30.26S
LEADVILLE      CLEAR     46  30  53 E5        30.41S
MONARCH PASS   CLEAR     46  32  57 E12       30.65S
SALIDA         CLEAR     55  39  53 W5        30.33R
SUNLIGHT       CLEAR     54  32  43 CALM      30.48S
WILKERSON PASS NOT AVBL
$$

COZ069>075-180700-
...SAN LUIS VALLEY/SANGRE DE CRISTO MOUNTAINS...

CITY           SKY/WX    TMP DP  RH WIND       PRES   REMARKS
ALAMOSA        PTCLDY    50  42  74 E7        30.24S
LA VETA PASS   NOT AVBL
SAGUACHE       CLEAR     48  32  53 NW3       30.28S
$$

COZ035-036-038>040-180700-
...NORTHERN COLORADO FRONT RANGE...

CITY           SKY/WX    TMP DP  RH WIND       PRES   REMARKS
DENVER INTL AP PTCLDY    64  43  46 SW9       30.07F
DMNS CITY PARK   N/A     62  52  69 S3        30.07S
AURORA         PTCLDY    61  45  56 S9        30.11S
FRONT RANGE AP CLEAR     64  45  48 SW8       30.09F
ERIE MUNI ARPT CLEAR     57  45  63 CALM      30.06F
BOULDER MUN AP CLEAR     70  37  30 SW6       30.07S
CENTENNIAL     PTCLDY    60  44  55 S7        30.12S
BROOMFIELD     CLEAR     64  39  39 W9        30.09F
FORT COLLINS   CLEAR     61  45  55 CALM      30.07S
LONGMONT       CLEAR     61  44  53 W7        30.07F
$$

COZ041-046-047-076>085-087-088-180700-
...PIKES PEAK/PALMER DIVIDE AND SOUTHERN FOOTHILLS...

CITY           SKY/WX    TMP DP  RH WIND       PRES   REMARKS
COLO. SPRINGS  CLEAR     63  42  46 NW8       30.15S
A. F. ACADEMY  CLEAR     55  41  60 N9        30.17S
ELLICOTT       NOT AVBL
FALCON         CLEAR     61  39  44 N7        30.20S
FORT CARSON    CLEAR     64  41  42 N13       30.10F
LIMON          CLEAR     51  42  71 N6        30.08S
MONUMENT HILL  CLEAR     52  39  62 W7        30.20S
TRINIDAD       PTCLDY    64  44  48 SW15      30.10F
$$

COZ042>045-048>051-090-091-180700-
...NORTHEAST COLORADO...

CITY           SKY/WX    TMP DP  RH WIND       PRES   REMARKS
GREELEY ARPT   CLEAR     54  43  66 N3        30.05S
AKRON          PTCLDY    63  43  48 SW8       30.02S
BURLINGTON     PTCLDY    65  52  62 SE8       30.00S
WRAY           MOCLDY    64  60  85 E6        29.98S
STERLING       PTCLDY    59  50  72 NW5       29.99R
HOLYOKE        MOCLDY    64  61  88 SE7       29.98F
FORT MORGAN    PTCLDY    59  45  60 W5        30.03S
$$

COZ086-089-092>099-180700-
...SOUTHEAST COLORADO...

CITY           SKY/WX    TMP DP  RH WIND       PRES   REMARKS
PUEBLO         CLEAR     62  40  44 S5        30.02R
LA JUNTA       CLEAR     68  43  40 SW13      29.98S
LAMAR          CLEAR     61  50  67 CALM      29.94R
SPRINGFIELD      N/A     60  55  83 SW12      30.00F
$$


USA.gov is the U.S. government's official web portal to all federal, state and local government web resources and services.